Terug naar catalogus

CZ-4B R/B

ActiefPO
NORAD 40337·ROCKET BODY·🇨🇳 China

Gelanceerd Dec 7, 2014 vanaf Taiyuan Satellite Launch Center

Loading…

Volgende Passages (komende 24 uur)

TLE

VersSource: Space-Track

Epoch: Sep 14, 2026, 05:50 UTC

1 40337U 14079B   26257.24355744  .00002418  00000-0  13735-3 0  9991
2 40337  98.4677   1.2864 0140522  41.9769 319.2123 15.06057983641120

Volg CZ-4B R/B in realtime met AllMySat

Download on the App Store